DW2213 Weather Reports


time (UTC)temp
C
wind
direction
speed
KPH
gust
KPH
rain 1hr
cm
rain 24hr
cm
rain mn
cm
humidity
%
barometer
mb
20260905222306 25 44 0.0 0.0 0.00 0.00 0.00 84 1016.5
20260905221804 25 44 0.0 0.0 0.00 0.00 0.00 85 1016.5
20260905221304 25 44 0.0 0.0 0.00 0.00 0.00 85 1016.4
20260905220816 25 44 0.0 0.0 0.00 0.00 0.00 85 1016.4
20260905220305 25 44 0.0 0.0 0.00 0.00 0.00 85 1016.4
20260905215804 25 44 0.0 0.0 0.00 0.00 0.00 85 1016.5
20260905215306 25 44 0.0 0.0 0.00 0.00 0.00 85 1016.5
20260905214804 25 44 0.0 0.0 0.00 0.00 0.00 85 1016.5
20260905213804 25 44 0.0 0.0 0.00 0.00 0.00 85 1016.6
20260905213304 25 44 0.0 0.0 0.00 0.00 0.00 85 1016.6
20260905211304 26 43 0.0 0.0 0.00 0.00 0.00 83 1016.4
20260905210804 26 44 0.0 0.0 0.00 0.00 0.00 83 1016.3
20260905210304 26 44 0.0 0.0 0.00 0.00 0.00 82 1016.4
20260905205803 27 44 0.0 0.0 0.00 0.00 0.00 83 1016.4
20260905205306 26 43 0.0 0.0 0.00 0.00 0.00 83 1016.4
20260905204804 27 43 0.0 0.0 0.00 0.00 0.00 83 1016.4
20260905204304 26 44 0.0 3.2 0.00 0.00 0.00 83 1016.3
20260905203804 26 44 0.0 3.2 0.00 0.00 0.00 83 1016.4
20260905202804 26 33 0.0 0.0 0.00 0.00 0.00 83 1016.4
20260905202306 27 36 0.0 0.0 0.00 0.00 0.00 83 1016.4
20260905201804 27 42 0.0 0.0 0.00 0.00 0.00 83 1016.4
20260905201305 27 41 0.0 0.0 0.00 0.00 0.00 83 1016.4
20260905200804 27 41 0.0 0.0 0.00 0.00 0.00 83 1016.4
20260905200304 27 40 0.0 0.0 0.00 0.00 0.00 83 1016.3
20260905195804 27 40 0.0 4.8 0.00 0.00 0.00 83 1016.2
20260905194804 27 134 0.0 0.0 0.00 0.00 0.00 83 1016.1
20260905194304 27 134 0.0 0.0 0.00 0.00 0.00 83 1016.1
20260905193804 27 134 0.0 1.6 0.00 0.00 0.00 83 1016.1
20260905193303 27 134 0.0 0.0 0.00 0.00 0.00 83 1016.1
20260905192306 27 134 0.0 1.6 0.00 0.00 0.00 82 1015.9
20260905190303 28 153 0.0 0.0 0.00 0.00 0.00 80 1015.7
20260905185804 28 153 0.0 0.0 0.00 0.00 0.00 79 1015.7
20260905185306 28 152 0.0 0.0 0.00 0.00 0.00 77 1015.6
20260905184304 28 152 0.0 1.6 0.00 0.00 0.00 75 1015.5
20260905183804 29 152 0.0 0.0 0.00 0.00 0.00 74 1015.4
20260905183304 29 152 0.0 0.0 0.00 0.00 0.00 74 1015.4
20260905182803 29 152 0.0 0.0 0.00 0.00 0.00 75 1015.4
20260905182305 29 152 0.0 0.0 0.00 0.00 0.00 75 1015.4
20260905181804 29 152 0.0 1.6 0.00 0.00 0.00 74 1015.3
20260905181304 29 152 0.0 1.6 0.00 0.00 0.00 73 1015.3
20260905180804 30 152 0.0 3.2 0.00 0.00 0.00 72 1015.2
20260905180304 30 152 1.6 3.2 0.00 0.00 0.00 73 1015.3
20260905175306 30 152 0.0 0.0 0.00 0.00 0.00 72 1015.2
20260905174303 30 152 0.0 0.0 0.00 0.00 0.00 72 1015.2
20260905173804 30 152 0.0 4.8 0.00 0.00 0.00 72 1015.2
20260905172803 30 152 0.0 1.6 0.00 0.00 0.00 71 1015.2
20260905172305 30 152 0.0 1.6 0.00 0.00 0.00 70 1015.1
20260905171804 31 151 0.0 3.2 0.00 0.00 0.00 70 1015.1
20260905171303 31 151 0.0 0.0 0.00 0.00 0.00 69 1015.1
20260905170803 31 152 1.6 8.0 0.00 0.00 0.00 69 1015.1
20260905170305 31 154 0.0 4.8 0.00 0.00 0.00 68 1015.0
20260905164805 31 146 3.2 11.3 0.00 0.00 0.00 68 1014.9
20260905164305 31 154 3.2 11.3 0.00 0.00 0.00 69 1014.8
20260905163805 31 113 1.6 4.8 0.00 0.00 0.00 69 1014.8
20260905163305 31 151 3.2 11.3 0.00 0.00 0.00 69 1014.8
20260905162805 31 145 1.6 9.7 0.00 0.00 0.00 69 1014.9
20260905162306 31 156 1.6 4.8 0.00 0.00 0.00 69 1014.9
20260905161805 31 159 1.6 9.7 0.00 0.00 0.00 69 1014.9
20260905161305 31 150 1.6 11.3 0.00 0.00 0.00 69 1014.9
20260905160305 31 150 3.2 14.5 0.00 0.00 0.00 69 1014.8
20260905155805 31 145 1.6 8.0 0.00 0.00 0.00 69 1014.9
20260905154804 31 115 1.6 9.7 0.00 0.00 0.00 70 1014.9
20260905154305 32 109 3.2 9.7 0.00 0.00 0.00 69 1014.9
20260905153805 32 132 1.6 11.3 0.00 0.00 0.00 68 1015.0
20260905153305 32 132 1.6 8.0 0.00 0.00 0.00 66 1015.0
20260905152805 32 131 3.2 11.3 0.00 0.00 0.00 66 1015.0
20260905152306 32 101 1.6 4.8 0.00 0.00 0.00 65 1015.0
20260905151804 32 135 1.6 12.9 0.00 0.00 0.00 66 1015.0
20260905151305 32 126 3.2 8.0 0.00 0.00 0.00 64 1015.0
20260905150805 32 152 4.8 11.3 0.00 0.00 0.00 64 1015.0
20260905150305 32 128 4.8 11.3 0.00 0.00 0.00 64 1015.1
20260905145804 32 124 3.2 12.9 0.00 0.00 0.00 63 1015.2
20260905144805 32 149 4.8 9.7 0.00 0.00 0.00 62 1015.3
20260905144305 33 144 4.8 11.3 0.00 0.00 0.00 61 1015.3
20260905143805 32 139 6.4 14.5 0.00 0.00 0.00 61 1015.3
20260905143305 33 149 4.8 14.5 0.00 0.00 0.00 58 1015.3
20260905142805 33 147 6.4 14.5 0.00 0.00 0.00 55 1015.4
20260905142306 33 143 3.2 11.3 0.00 0.00 0.00 53 1015.4
20260905141805 33 147 4.8 12.9 0.00 0.00 0.00 52 1015.4
20260905141305 34 141 4.8 11.3 0.00 0.00 0.00 52 1015.5
20260905140804 33 133 4.8 12.9 0.00 0.00 0.00 50 1015.5
20260905140305 34 143 3.2 9.7 0.00 0.00 0.00 50 1015.5
20260905135805 34 155 3.2 11.3 0.00 0.00 0.00 48 1015.5
20260905135306 33 148 3.2 9.7 0.00 0.00 0.00 48 1015.6
20260905134805 33 143 4.8 11.3 0.00 0.00 0.00 47 1015.6
20260905134305 34 142 3.2 9.7 0.00 0.00 0.00 48 1015.7
20260905133804 34 143 6.4 14.5 0.00 0.00 0.00 47 1015.7
20260905133305 34 150 3.2 11.3 0.00 0.00 0.00 49 1015.7
20260905131805 34 124 1.6 4.8 0.00 0.00 0.00 53 1016.0
20260905131305 33 139 1.6 8.0 0.00 0.00 0.00 54 1016.1
20260905130805 33 134 3.2 12.9 0.00 0.00 0.00 54 1016.0
20260905130305 34 149 3.2 11.3 0.00 0.00 0.00 54 1016.0
20260905125804 33 141 3.2 11.3 0.00 0.00 0.00 54 1016.0
20260905125306 33 138 3.2 11.3 0.00 0.00 0.00 55 1016.1
20260905124805 33 97 1.6 8.0 0.00 0.00 0.00 55 1016.1
20260905124305 33 145 4.8 9.7 0.00 0.00 0.00 55 1016.1
20260905123305 33 139 3.2 9.7 0.00 0.00 0.00 55 1016.2
20260905122805 33 138 1.6 9.7 0.00 0.00 0.00 56 1016.1
20260905122307 33 137 1.6 9.7 0.00 0.00 0.00 56 1016.1
20260905121805 33 138 3.2 9.7 0.00 0.00 0.00 57 1016.1
20260905121305 33 144 4.8 9.7 0.00 0.00 0.00 57 1016.1
20260905120305 33 153 3.2 9.7 0.00 0.00 0.00 57 1016.2
20260905115805 33 146 1.6 14.5 0.00 0.00 0.00 57 1016.2
20260905115306 33 143 3.2 12.9 0.00 0.00 0.00 56 1016.3
20260905114804 34 153 3.2 11.3 0.00 0.00 0.00 56 1016.3
20260905113805 33 143 3.2 9.7 0.00 0.00 0.00 56 1016.3
20260905113305 33 155 3.2 11.3 0.00 0.00 0.00 56 1016.3
20260905112805 33 148 1.6 8.0 0.00 0.00 0.00 57 1016.4
20260905111804 33 138 3.2 9.7 0.00 0.00 0.00 57 1016.3
20260905111305 33 147 3.2 9.7 0.00 0.00 0.00 56 1016.3
20260905110304 33 139 1.6 11.3 0.00 0.00 0.00 54 1016.4
20260905105804 34 134 1.6 4.8 0.00 0.00 0.00 54 1016.3
20260905105306 33 145 1.6 8.0 0.00 0.00 0.00 55 1016.3
20260905104804 34 151 1.6 8.0 0.00 0.00 0.00 55 1016.4
20260905104304 34 144 3.2 9.7 0.00 0.00 0.00 52 1016.4
20260905103804 34 138 1.6 8.0 0.00 0.00 0.00 53 1016.4
20260905102804 34 155 1.6 4.8 0.00 0.00 0.00 53 1016.4
20260905102306 33 148 0.0 4.8 0.00 0.00 0.00 53 1016.4
20260905101805 33 150 1.6 4.8 0.00 0.00 0.00 54 1016.4
20260905100804 33 142 1.6 4.8 0.00 0.00 0.00 55 1016.4
20260905100306 33 140 0.0 9.7 0.00 0.00 0.00 55 1016.4
20260905095804 33 161 3.2 8.0 0.00 0.00 0.00 56 1016.3
20260905095306 32 238 0.0 3.2 0.00 0.00 0.00 56 1016.2
20260905094804 32 238 0.0 1.6 0.00 0.00 0.00 55 1016.2
20260905093304 32 264 0.0 3.2 0.00 0.00 0.00 57 1016.1
20260905092804 31 264 1.6 4.8 0.00 0.00 0.00 56 1016.1
20260905092306 31 318 0.0 4.8 0.00 0.00 0.00 58 1016.1
20260905091804 31 242 0.0 3.2 0.00 0.00 0.00 61 1016.1
20260905090804 30 240 0.0 9.7 0.00 0.00 0.00 65 1016.1
20260905090305 30 249 1.6 8.0 0.00 0.00 0.00 66 1016.1
20260905085804 30 254 0.0 4.8 0.00 0.00 0.00 67 1016.1
20260905085306 29 253 1.6 4.8 0.00 0.00 0.00 68 1016.1
20260905084805 28 241 0.0 4.8 0.00 0.00 0.00 69 1016.1
20260905084305 28 237 0.0 4.8 0.00 0.00 0.00 69 1016.0
20260905083804 28 237 0.0 4.8 0.00 0.00 0.00 69 1016.0
20260905083305 28 340 1.6 4.8 0.00 0.00 0.00 69 1015.9
20260905082805 28 251 3.2 8.0 0.00 0.00 0.00 68 1015.8
20260905082307 28 225 0.0 4.8 0.00 0.00 0.00 69 1015.9
20260905081805 27 278 1.6 4.8 0.00 0.00 0.00 70 1015.8
20260905081305 27 222 0.0 8.0 0.00 0.00 0.00 71 1015.8
20260905080805 27 268 0.0 4.8 0.00 0.00 0.00 71 1015.7
20260905080304 27 311 0.0 3.2 0.00 0.00 0.00 73 1015.6
20260905075306 27 217 1.6 4.8 0.00 0.00 0.00 75 1015.6
20260905074805 26 216 0.0 3.2 0.00 0.00 0.00 76 1015.7
20260905072804 25 292 0.0 0.0 0.00 0.00 0.00 81 1015.6
20260905072306 25 297 0.0 0.0 0.00 0.00 0.00 82 1015.5
20260905071304 25 299 0.0 0.0 0.00 0.00 0.00 83 1015.5
20260905070804 25 298 0.0 0.0 0.00 0.00 0.00 83 1015.5
20260905070305 24 297 0.0 0.0 0.00 0.00 0.00 83 1015.5
20260905065805 24 298 0.0 0.0 0.00 0.00 0.00 83 1015.5
20260905065306 24 298 0.0 0.0 0.00 0.00 0.00 83 1015.5
20260905064805 24 298 0.0 0.0 0.00 0.00 0.00 84 1015.5
20260905063805 23 298 0.0 0.0 0.00 0.00 0.00 84 1015.6
20260905063304 23 298 0.0 0.0 0.00 0.00 0.00 84 1015.6
20260905062804 23 298 0.0 0.0 0.00 0.00 0.00 84 1015.6
20260905062306 23 298 0.0 0.0 0.00 0.00 0.00 84 1015.6
20260905061804 23 297 0.0 0.0 0.00 0.00 0.00 84 1015.6
20260905061304 24 297 0.0 0.0 0.00 0.00 0.00 84 1015.6
20260905060804 23 298 0.0 0.0 0.00 0.00 0.00 84 1015.6
20260905060305 23 298 0.0 0.0 0.00 0.00 0.00 84 1015.6
20260905055804 23 297 0.0 0.0 0.00 0.00 0.00 84 1015.5
20260905055306 23 297 0.0 0.0 0.00 0.00 0.00 85 1015.4
20260905054805 23 297 0.0 0.0 0.00 0.00 0.00 85 1015.4
20260905054305 23 297 0.0 0.0 0.00 0.00 0.00 86 1015.4
20260905053805 23 297 0.0 0.0 0.00 0.00 0.00 86 1015.4
20260905053304 23 297 0.0 0.0 0.00 0.00 0.00 87 1015.3
20260905052804 23 297 0.0 0.0 0.00 0.00 0.00 87 1015.2
20260905052306 23 297 0.0 0.0 0.00 0.00 0.00 88 1015.2
20260905051804 23 297 0.0 0.0 0.00 0.00 0.00 89 1015.1
20260905051304 23 296 0.0 0.0 0.00 0.00 0.00 89 1015.1
20260905050804 23 296 0.0 0.0 0.00 0.00 0.00 89 1015.1
20260905050304 23 296 0.0 0.0 0.00 0.00 0.00 89 1015.1
20260905045805 23 296 0.0 0.0 0.00 0.00 0.00 90 1015.1
20260905045306 23 296 0.0 0.0 0.00 0.00 0.00 90 1015.1
20260905044804 23 296 0.0 0.0 0.00 0.00 0.00 90 1015.1
20260905044304 23 296 0.0 0.0 0.00 0.00 0.00 90 1015.2
20260905043304 23 300 0.0 1.6 0.00 0.00 0.00 90 1015.1
20260905042804 23 301 0.0 0.0 0.00 0.00 0.00 90 1015.1
20260905042307 23 300 0.0 0.0 0.00 0.00 0.00 90 1015.1
20260905041804 23 300 0.0 0.0 0.00 0.00 0.00 89 1015.1
20260905041304 23 300 0.0 0.0 0.00 0.00 0.00 90 1015.0
20260905040805 23 300 0.0 1.6 0.00 0.00 0.00 90 1014.9
20260905040305 23 299 0.0 0.0 0.00 0.00 0.00 89 1015.0
20260905035804 23 302 0.0 0.0 0.00 0.00 0.00 89 1015.0
20260905035306 23 302 0.0 0.0 0.00 0.00 0.00 89 1015.0
20260905034805 23 302 0.0 0.0 0.00 0.00 0.00 89 1015.0
20260905034305 23 302 0.0 0.0 0.00 0.00 0.00 89 1015.1
20260905033304 24 302 0.0 0.0 0.00 0.00 0.00 89 1015.0
20260905032804 24 302 0.0 0.0 0.00 0.00 0.00 89 1014.9
20260905031804 24 302 0.0 0.0 0.00 0.00 0.00 89 1015.0
20260905031304 24 302 0.0 0.0 0.00 0.00 0.00 88 1015.0
20260905030805 24 302 0.0 0.0 0.00 0.00 0.00 88 1015.0
20260905025804 24 301 0.0 0.0 0.00 0.00 0.00 88 1014.9
20260905025306 24 302 0.0 0.0 0.00 0.00 0.00 88 1014.9
20260905024805 24 302 0.0 0.0 0.00 0.00 0.00 88 1014.9
20260905024304 24 302 0.0 0.0 0.00 0.00 0.00 88 1014.9
20260905023304 25 300 0.0 0.0 0.00 0.00 0.00 88 1014.8
20260905022804 25 299 0.0 0.0 0.00 0.00 0.00 88 1014.8
20260905021804 25 302 0.0 3.2 0.00 0.00 0.00 88 1014.7
20260905021304 25 306 0.0 0.0 0.00 0.00 0.00 88 1014.7
20260905020805 25 302 0.0 0.0 0.00 0.00 0.00 88 1014.8
20260905020304 25 299 0.0 3.2 0.00 0.00 0.00 88 1014.7
20260905015804 25 307 0.0 4.8 0.00 0.00 0.00 88 1014.7
20260905015306 25 305 0.0 0.0 0.00 0.00 0.00 87 1014.7
20260905014804 25 299 0.0 4.8 0.00 0.00 0.00 87 1014.7
20260905014305 25 299 0.0 3.2 0.00 0.00 0.00 87 1014.6
20260905013305 25 294 0.0 0.0 0.00 0.00 0.00 87 1014.6
20260905012804 25 290 0.0 0.0 0.00 0.00 0.00 87 1014.6
20260905012306 25 289 0.0 0.0 0.00 0.00 0.00 87 1014.6
20260905011804 25 288 0.0 0.0 0.00 0.00 0.00 87 1014.6
20260905011305 25 289 0.0 0.0 0.00 0.00 0.00 87 1014.6
20260905010304 25 290 0.0 0.0 0.00 0.00 0.00 87 1014.6
20260905005804 25 290 0.0 0.0 0.00 0.00 0.00 87 1014.6
20260905005306 25 288 0.0 0.0 0.00 0.00 0.00 87 1014.7
20260905004804 25 289 0.0 0.0 0.00 0.00 0.00 87 1014.8
20260905004305 25 288 0.0 0.0 0.00 0.00 0.00 87 1014.8
20260905003304 25 288 0.0 0.0 0.00 0.00 0.00 87 1014.8
20260905002804 25 288 0.0 0.0 0.00 0.00 0.00 87 1014.8
20260905002306 25 288 0.0 0.0 0.00 0.00 0.00 87 1014.7
20260905001804 25 288 0.0 0.0 0.00 0.00 0.00 87 1014.8
20260905001304 25 288 0.0 0.0 0.00 0.00 0.00 87 1014.8
20260905000305 25 288 0.0 0.0 0.00 0.00 0.00 86 1014.8
20260904235805 25 288 0.0 0.0 0.00 0.00 0.00 86 1014.8
20260904234804 25 288 0.0 0.0 0.00 0.00 0.00 86 1014.9
20260904234304 25 288 0.0 0.0 0.00 0.00 0.00 86 1014.9
20260904233804 26 288 0.0 0.0 0.00 0.00 0.00 86 1014.9
20260904233304 26 291 0.0 0.0 0.00 0.00 0.00 86 1014.9
20260904232804 26 291 0.0 0.0 0.00 0.00 0.00 86 1015.0
20260904232306 26 291 0.0 0.0 0.00 0.00 0.00 86 1015.0
20260904231804 25 292 0.0 0.0 0.00 0.00 0.00 86 1015.0
20260904231304 25 292 0.0 0.0 0.00 0.00 0.00 86 1014.9
20260904230804 26 292 0.0 0.0 0.00 0.00 0.00 86 1014.8
20260904230304 26 292 0.0 0.0 0.00 0.00 0.00 86 1014.8
20260904225805 26 293 0.0 0.0 0.00 0.00 0.00 86 1014.8
20260904225305 26 294 0.0 0.0 0.00 0.00 0.00 86 1014.8
20260904223804 26 293 0.0 0.0 0.00 0.00 0.00 86 1014.7
20260904223304 26 293 0.0 0.0 0.00 0.00 0.00 86 1014.7